| time (UTC) | temp C | wind direction | speed KPH | gust KPH | rain 1hr cm | rain 24hr cm | rain mn cm | humidity % | barometer mb |
| 20260506033516 | 10 | 158 | 4.8 | 8.0 | 0.00 | 0.94 | 0.03 | 95 | 1005.8 |
| 20260506032516 | 10 | 158 | 6.4 | 9.7 | 0.00 | 0.94 | 0.03 | 95 | 1005.9 |
| 20260506031516 | 10 | 180 | 4.8 | 8.0 | 0.00 | 0.94 | 0.03 | 95 | 1005.9 |
| 20260506030516 | 10 | 180 | 4.8 | 9.7 | 0.00 | 0.94 | 0.03 | 95 | 1006.1 |
| 20260506025516 | 10 | 158 | 8.0 | 12.9 | 0.00 | 0.94 | 0.03 | 95 | 1006.1 |
| 20260506024516 | 10 | 158 | 6.4 | 11.3 | 0.00 | 0.94 | 0.03 | 95 | 1006.2 |
| 20260506023516 | 10 | 158 | 4.8 | 9.7 | 0.00 | 0.94 | 0.03 | 95 | 1006.1 |
| 20260506022516 | 10 | 158 | 6.4 | 9.7 | 0.00 | 0.94 | 0.03 | 95 | 1006.1 |
| 20260506021516 | 10 | 158 | 8.0 | 12.9 | 0.00 | 0.94 | 0.03 | 95 | 1006.0 |
| 20260506020516 | 10 | 158 | 6.4 | 9.7 | 0.00 | 0.94 | 0.03 | 95 | 1006.1 |
| 20260506015516 | 10 | 158 | 4.8 | 8.0 | 0.00 | 0.94 | 0.03 | 95 | 1006.2 |
| 20260506014536 | 10 | 158 | 4.8 | 8.0 | 0.00 | 0.94 | 0.03 | 95 | 1006.2 |
| 20260506013516 | 10 | 158 | 8.0 | 11.3 | 0.00 | 0.94 | 0.03 | 95 | 1006.2 |
| 20260506012516 | 10 | 158 | 6.4 | 9.7 | 0.00 | 0.94 | 0.03 | 95 | 1006.4 |
| 20260506011536 | 10 | 158 | 4.8 | 9.7 | 0.00 | 0.94 | 0.03 | 95 | 1006.3 |
| 20260506010536 | 10 | 158 | 6.4 | 11.3 | 0.00 | 0.94 | 0.03 | 95 | 1006.2 |
| 20260506005516 | 11 | 180 | 4.8 | 11.3 | 0.00 | 0.94 | 0.03 | 95 | 1006.4 |
| 20260506004536 | 11 | 158 | 4.8 | 9.7 | 0.00 | 0.94 | 0.03 | 95 | 1006.4 |
| 20260506003516 | 11 | 180 | 4.8 | 11.3 | 0.00 | 0.94 | 0.03 | 95 | 1006.5 |
| 20260506002516 | 11 | 180 | 3.2 | 12.9 | 0.00 | 0.94 | 0.03 | 95 | 1006.6 |
| 20260506001516 | 11 | 180 | 4.8 | 8.0 | 0.00 | 0.94 | 0.03 | 95 | 1006.8 |
| 20260506000517 | 11 | 158 | 6.4 | 9.7 | 0.03 | 0.94 | 0.03 | 95 | 1006.8 |
| 20260505235516 | 11 | 158 | 3.2 | 8.0 | 0.03 | 0.94 | 0.03 | 94 | 1007.0 |
| 20260505234516 | 11 | 158 | 4.8 | 9.7 | 0.03 | 0.94 | 0.03 | 94 | 1007.0 |
| 20260505233516 | 11 | 158 | 4.8 | 8.0 | 0.03 | 0.94 | 0.03 | 95 | 1007.1 |
| 20260505232515 | 11 | 203 | 6.4 | 9.7 | 0.03 | 0.94 | 0.03 | 94 | 1007.1 |
| 20260505231515 | 11 | 180 | 4.8 | 9.7 | 0.03 | 0.94 | 0.03 | 95 | 1007.1 |
| 20260505230515 | 11 | 180 | 3.2 | 6.4 | 0.00 | 0.91 | 0.00 | 94 | 1006.9 |
| 20260505225521 | 11 | 180 | 4.8 | 8.0 | 0.00 | 0.91 | 0.00 | 94 | 1006.8 |
| 20260505224515 | 11 | 158 | 6.4 | 9.7 | 0.00 | 0.91 | 0.00 | 94 | 1006.8 |
| 20260505223516 | 11 | 158 | 4.8 | 8.0 | 0.00 | 0.91 | 0.00 | 94 | 1006.8 |
| 20260505222515 | 11 | 158 | 4.8 | 9.7 | 0.00 | 0.91 | 0.00 | 94 | 1006.9 |
| 20260505221517 | 11 | 158 | 3.2 | 8.0 | 0.00 | 0.91 | 0.00 | 94 | 1007.0 |
| 20260505220517 | 11 | 203 | 3.2 | 4.8 | 0.00 | 0.91 | 0.00 | 94 | 1006.9 |
| 20260505215517 | 11 | 225 | 3.2 | 6.4 | 0.00 | 0.91 | 0.91 | 94 | 1006.7 |
| 20260505214517 | 11 | 0.0 | 3.2 | 0.00 | 0.91 | 0.91 | 94 | 1006.6 | |
| 20260505213557 | 11 | 225 | 3.2 | 4.8 | 0.00 | 0.91 | 0.91 | 94 | 1006.9 |
| 20260505212516 | 11 | 225 | 3.2 | 4.8 | 0.00 | 0.91 | 0.91 | 94 | 1007.0 |
| 20260505211516 | 11 | 0.0 | 3.2 | 0.00 | 0.91 | 0.91 | 94 | 1006.8 | |
| 20260505210517 | 11 | 0.0 | 1.6 | 0.00 | 0.91 | 0.91 | 94 | 1006.9 | |
| 20260505205516 | 11 | 0.0 | 3.2 | 0.00 | 0.91 | 0.91 | 93 | 1006.8 | |
| 20260505204516 | 11 | 0.0 | 3.2 | 0.00 | 0.91 | 0.91 | 93 | 1006.9 | |
| 20260505203516 | 11 | 0.0 | 0.0 | 0.00 | 0.91 | 0.91 | 93 | 1006.6 | |
| 20260505202516 | 11 | 0.0 | 3.2 | 0.00 | 0.91 | 0.91 | 93 | 1006.6 | |
| 20260505201539 | 11 | 225 | 1.6 | 3.2 | 0.00 | 0.91 | 0.91 | 93 | 1006.3 |
| 20260505200536 | 11 | 225 | 3.2 | 4.8 | 0.00 | 0.91 | 0.91 | 93 | 1006.1 |
| 20260505195516 | 12 | 225 | 3.2 | 6.4 | 0.00 | 0.91 | 0.91 | 93 | 1005.9 |
| 20260505194536 | 12 | 203 | 1.6 | 4.8 | 0.00 | 0.91 | 0.91 | 93 | 1005.7 |
| 20260505193516 | 12 | 0.0 | 0.0 | 0.00 | 0.91 | 0.91 | 93 | 1005.5 | |
| 20260505192516 | 12 | 0.0 | 4.8 | 0.00 | 0.91 | 0.91 | 93 | 1005.4 | |
| 20260505191516 | 12 | 0.0 | 3.2 | 0.00 | 0.91 | 0.91 | 93 | 1005.4 | |
| 20260505190516 | 12 | 293 | 1.6 | 8.0 | 0.00 | 0.91 | 0.91 | 93 | 1005.5 |
| 20260505185516 | 12 | 315 | 3.2 | 8.0 | 0.00 | 0.91 | 0.91 | 92 | 1005.3 |
| 20260505184516 | 12 | 338 | 1.6 | 11.3 | 0.00 | 0.91 | 0.91 | 92 | 1005.3 |
| 20260505183516 | 12 | 0.0 | 1.6 | 0.00 | 0.91 | 0.91 | 92 | 1005.3 | |
| 20260505182516 | 12 | 293 | 1.6 | 12.9 | 0.30 | 0.91 | 0.91 | 92 | 1005.4 |
| 20260505181516 | 12 | 315 | 1.6 | 6.4 | 0.61 | 0.91 | 0.91 | 91 | 1005.3 |
| 20260505180536 | 12 | 0.0 | 4.8 | 0.89 | 0.91 | 0.91 | 91 | 1005.3 | |
| 20260505175516 | 12 | 0.0 | 1.6 | 0.91 | 0.91 | 0.91 | 91 | 1005.2 | |
| 20260505174516 | 12 | 315 | 3.2 | 6.4 | 0.91 | 0.91 | 0.91 | 90 | 1005.1 |
| 20260505173516 | 13 | 270 | 9.7 | 17.7 | 0.91 | 0.91 | 0.91 | 89 | 1005.1 |
| 20260505172516 | 13 | 270 | 11.3 | 20.9 | 0.61 | 0.61 | 0.61 | 88 | 1005.3 |
| 20260505171519 | 14 | 248 | 17.7 | 33.8 | 0.33 | 0.33 | 0.33 | 82 | 1005.2 |
| 20260505170516 | 16 | 225 | 17.7 | 33.8 | 0.05 | 0.05 | 0.05 | 73 | 1005.3 |
| 20260505165516 | 18 | 225 | 9.7 | 35.4 | 0.00 | 0.00 | 0.00 | 65 | 1004.7 |
| 20260505164516 | 19 | 0 | 1.6 | 4.8 | 0.00 | 0.00 | 0.00 | 64 | 1003.9 |
| 20260505163516 | 19 | 45 | 1.6 | 4.8 | 0.00 | 0.00 | 0.00 | 64 | 1004.0 |
| 20260505162516 | 20 | 0 | 1.6 | 6.4 | 0.00 | 0.00 | 0.00 | 65 | 1004.0 |
| 20260505161516 | 20 | 23 | 1.6 | 4.8 | 0.00 | 0.00 | 0.00 | 65 | 1004.0 |
| 20260505160516 | 20 | 23 | 1.6 | 6.4 | 0.00 | 0.00 | 0.00 | 65 | 1004.1 |
| 20260505152515 | 20 | 23 | 3.2 | 14.5 | 0.00 | 0.00 | 0.00 | 61 | 1004.3 |
| 20260505151536 | 21 | 45 | 3.2 | 11.3 | 0.00 | 0.00 | 0.00 | 60 | 1004.5 |
| 20260505150516 | 21 | 23 | 1.6 | 12.9 | 0.00 | 0.00 | 0.00 | 60 | 1004.4 |
| 20260505140518 | 21 | 0 | 1.6 | 8.0 | 0.00 | 0.00 | 0.00 | 57 | 1005.0 |
| 20260505124517 | 23 | 0.0 | 1.6 | 0.00 | 0.00 | 0.00 | 47 | 1005.7 | |
| 20260505123517 | 23 | 270 | 3.2 | 11.3 | 0.00 | 0.00 | 0.00 | 46 | 1005.7 |
| 20260505122517 | 24 | 293 | 3.2 | 8.0 | 0.00 | 0.00 | 0.00 | 45 | 1005.9 |
| 20260505121518 | 24 | 293 | 3.2 | 9.7 | 0.00 | 0.00 | 0.00 | 48 | 1006.1 |
| 20260505120558 | 23 | 293 | 1.6 | 6.4 | 0.00 | 0.00 | 0.00 | 46 | 1006.1 |
| 20260505115517 | 23 | 158 | 3.2 | 11.3 | 0.00 | 0.00 | 0.00 | 41 | 1006.2 |
| 20260505114517 | 25 | 158 | 3.2 | 11.3 | 0.00 | 0.00 | 0.00 | 41 | 1006.4 |
| 20260505113517 | 24 | 293 | 3.2 | 9.7 | 0.00 | 0.00 | 0.00 | 39 | 1006.5 |
| 20260505112517 | 23 | 270 | 1.6 | 3.2 | 0.00 | 0.00 | 0.00 | 43 | 1006.4 |
| 20260505111517 | 23 | 270 | 3.2 | 9.7 | 0.00 | 0.00 | 0.00 | 46 | 1006.5 |
| 20260505110517 | 22 | 293 | 1.6 | 6.4 | 0.00 | 0.00 | 0.00 | 48 | 1006.6 |
| 20260505101517 | 22 | 0.0 | 4.8 | 0.00 | 0.00 | 0.00 | 52 | 1007.0 | |
| 20260505100537 | 22 | 315 | 3.2 | 9.7 | 0.00 | 0.00 | 0.00 | 52 | 1007.2 |
| 20260505095540 | 22 | 248 | 1.6 | 4.8 | 0.00 | 0.00 | 0.00 | 55 | 1007.2 |
| 20260505094517 | 22 | 293 | 1.6 | 4.8 | 0.00 | 0.00 | 0.00 | 57 | 1007.3 |
| 20260505093517 | 22 | 0.0 | 6.4 | 0.00 | 0.00 | 0.00 | 60 | 1007.4 | |
| 20260505092517 | 22 | 45 | 1.6 | 4.8 | 0.00 | 0.00 | 0.00 | 60 | 1007.6 |
| 20260505091517 | 21 | 0.0 | 6.4 | 0.00 | 0.00 | 0.00 | 61 | 1007.6 | |
| 20260505090517 | 21 | 0.0 | 4.8 | 0.00 | 0.00 | 0.00 | 60 | 1007.8 | |
| 20260505085517 | 21 | 0 | 1.6 | 4.8 | 0.00 | 0.00 | 0.00 | 63 | 1007.9 |
| 20260505084517 | 20 | 0.0 | 1.6 | 0.00 | 0.00 | 0.00 | 64 | 1008.0 | |
| 20260505083517 | 20 | 45 | 1.6 | 4.8 | 0.00 | 0.00 | 0.00 | 66 | 1008.0 |
| 20260505082517 | 20 | 293 | 1.6 | 4.8 | 0.00 | 0.00 | 0.00 | 67 | 1008.0 |
| 20260505081557 | 19 | 0.0 | 3.2 | 0.00 | 0.00 | 0.00 | 69 | 1008.1 | |
| 20260505080537 | 18 | 0.0 | 1.6 | 0.00 | 0.00 | 0.00 | 71 | 1008.2 | |
| 20260505075537 | 18 | 0.0 | 1.6 | 0.00 | 0.00 | 0.00 | 73 | 1008.1 | |
| 20260505074516 | 18 | 0.0 | 4.8 | 0.00 | 0.00 | 0.00 | 72 | 1008.2 | |
| 20260505073516 | 18 | 0.0 | 1.6 | 0.00 | 0.00 | 0.00 | 72 | 1008.3 | |
| 20260505072520 | 18 | 0.0 | 0.0 | 0.00 | 0.00 | 0.00 | 71 | 1008.3 | |
| 20260505071557 | 18 | 0.0 | 1.6 | 0.00 | 0.00 | 0.00 | 71 | 1008.4 | |
| 20260505070517 | 18 | 0.0 | 3.2 | 0.00 | 0.00 | 0.00 | 72 | 1008.4 | |
| 20260505065516 | 17 | 0.0 | 3.2 | 0.00 | 0.00 | 0.00 | 75 | 1008.4 | |
| 20260505064517 | 16 | 0.0 | 0.0 | 0.00 | 0.00 | 0.00 | 76 | 1008.4 | |
| 20260505063517 | 16 | 0.0 | 3.2 | 0.00 | 0.00 | 0.00 | 76 | 1008.5 | |
| 20260505062516 | 16 | 0.0 | 4.8 | 0.00 | 0.00 | 0.00 | 77 | 1008.7 | |
| 20260505061516 | 16 | 0.0 | 1.6 | 0.00 | 0.00 | 0.00 | 79 | 1008.5 | |
| 20260505060536 | 15 | 0.0 | 1.6 | 0.00 | 0.00 | 0.00 | 80 | 1008.5 | |
| 20260505055517 | 15 | 0.0 | 3.2 | 0.00 | 0.00 | 0.00 | 81 | 1008.4 | |
| 20260505054516 | 14 | 0.0 | 1.6 | 0.00 | 0.00 | 0.00 | 82 | 1008.7 | |
| 20260505053556 | 13 | 0.0 | 6.4 | 0.00 | 0.00 | 0.00 | 83 | 1008.5 | |
| 20260505052516 | 13 | 0.0 | 3.2 | 0.00 | 0.00 | 0.00 | 83 | 1008.6 | |
| 20260505051516 | 13 | 0.0 | 1.6 | 0.00 | 0.00 | 0.00 | 84 | 1008.5 | |
| 20260505050516 | 13 | 0.0 | 0.0 | 0.00 | 0.00 | 0.00 | 84 | 1008.5 | |
| 20260505041516 | 13 | 0 | 1.6 | 8.0 | 0.00 | 0.00 | 0.00 | 83 | 1008.5 |
| 20260505040516 | 13 | 23 | 1.6 | 8.0 | 0.00 | 0.00 | 0.00 | 82 | 1008.5 |
| 20260505035516 | 13 | 0.0 | 1.6 | 0.00 | 0.00 | 0.00 | 81 | 1008.6 | |
| 20260505034536 | 13 | 0.0 | 3.2 | 0.00 | 0.00 | 0.00 | 81 | 1008.7 |